Temp
23 24 25 26 30 34 32 32 33 32 31 32 31 31 29 28 28 26 25 25 24 23 22 21 20 20 20 21 20 20 20 21 21 21 21 20 20 21 21 21 21 21 21 21 21 21 21 21 21
26 25 26 29 32 33 32 32 32 32 32 31 30 30 30 27 28 26 25 24 24 24 23 20 20 20 20 20 20 20 20 21 22 20 21 20 20 21 21 21 21 21 21 21 21 21 21 21 21
24 25 29 31 33 33 32 32 32 31 31 31 30 30 29 27 27 26 25 24 25 24 23 20 20 20 20 20 20 21 21 20 21 20 21 21 21 21 21 21 21 21 21 21 21 21 21 21 21
26 26 30 32 32 32 32 32 32 31 31 30 30 28 28 27 27 26 25 25 25 25 23 21 21 21 21 21 20 20 20 21 21 21 21 21 21 21 21 21 21 21 21 21 21 22 22 22 22
26 28 32 32 32 32 33 32 32 32 31 30 31 28 27 26 25 25 25 26 26 25 23 21 21 22 21 21 21 20 21 21 21 21 20 21 21 21 21 21 21 21 21 21 22 22 23 23 22
29 27 32 32 31 31 32 32 32 31 30 30 30 28 26 26 26 26 26 26 26 26 24 22 21 22 21 21 21 21 21 21 21 20 21 21 21 21 21 21 21 21 21 22 23 23 23 23 22
28 26 32 33 31 31 31 32 31 31 30 30 31 29 26 27 26 25 26 26 26 25 24 23 21 21 20 20 20 20 21 20 20 21 21 21 21 21 21 21 21 21 22 23 23 23 23 23 23
30 26 31 33 31 30 31 31 31 31 29 30 31 28 27 27 26 26 26 26 26 25 24 22 21 21 21 20 19 19 20 20 20 21 21 21 21 22 22 23 21 22 23 24 24 24 24 24 23
30 29 29 32 32 30 31 30 30 31 30 30 30 31 28 26 26 26 26 26 25 25 25 25 24 21 21 20 20 21 21 21 22 22 22 23 24 24 24 23 23 24 24 24 24 24 24 24 25
31 27 30 29 31 31 31 31 30 30 30 28 30 29 27 26 26 27 27 27 26 25 25 25 26 24 23 22 21 21 22 22 22 22 22 24 24 24 24 23 24 24 25 25 25 25 25 25 28
29 25 27 29 29 31 31 31 31 31 30 30 29 29 28 27 27 28 27 27 26 26 25 24 24 23 25 24 23 24 24 24 23 22 24 23 25 25 26 26 26 26 25 27 27 27 27 27 28
27 24 24 27 28 29 31 31 31 31 31 32 30 29 28 29 28 28 28 27 26 25 25 24 23 23 24 24 25 24 24 24 25 24 23 24 26 25 25 26 26 26 27 26 27 27 26 27 27
26 24 23 24 25 28 28 29 30 30 31 31 30 29 29 29 28 28 28 27 26 25 24 24 23 23 23 24 24 24 25 25 24 24 23 24 26 25 26 25 26 27 27 27 27 27 27 27 28
27 27 25 27 24 24 28 27 29 29 31 30 29 29 30 29 29 28 28 27 26 26 25 24 24 23 23 23 23 24 24 24 25 25 24 24 25 25 26 26 27 27 27 27 27 27 28 28 28
29 28 28 27 24 23 26 26 27 29 31 30 30 30 30 29 28 28 27 27 26 26 25 25 24 23 23 23 24 25 25 25 25 25 23 23 24 24 25 26 27 27 26 26 26 26 27 28 29
29 29 27 25 26 21 23 24 24 27 30 30 30 30 29 29 28 28 27 27 26 27 25 25 25 24 23 23 23 25 24 25 25 25 25 24 23 23 25 27 26 26 27 27 28 28 28 29 29
31 28 28 24 22 22 21 22 24 22 25 30 30 30 30 29 29 28 27 27 26 26 25 25 25 24 24 23 23 23 23 25 25 25 25 24 24 24 25 26 25 26 27 27 28 28 28 28 29
31 31 29 27 24 21 21 22 24 22 22 28 30 31 30 30 30 28 28 27 27 26 25 25 24 24 23 23 23 24 25 25 25 25 25 24 24 24 25 25 25 27 28 28 27 26 27 28 27
32 32 30 28 26 25 23 22 23 21 21 24 29 31 31 31 30 29 28 27 27 26 25 24 24 23 23 24 25 25 25 25 25 25 24 24 24 24 24 26 26 27 27 26 26 27 27 28 27
32 32 30 27 26 27 26 24 23 22 22 23 28 30 31 30 31 29 28 28 27 26 25 24 24 23 23 25 25 26 25 25 26 25 24 24 24 24 25 24 26 25 27 26 26 26 28 28 26
32 32 31 30 27 27 26 27 24 23 22 23 26 29 30 29 31 30 29 28 27 26 26 25 24 23 23 25 24 23 24 24 25 25 25 25 24 24 24 24 24 25 26 27 26 26 25 28 27
32 32 31 29 29 27 27 27 26 24 22 23 23 26 30 31 31 31 30 29 28 27 26 25 24 23 23 23 25 25 26 27 27 26 26 25 24 24 25 25 25 24 26 25 26 26 25 25 28
32 32 31 30 31 29 28 25 27 26 22 25 25 26 29 32 32 32 31 30 29 28 27 26 24 23 24 23 24 25 25 26 26 26 25 25 24 24 25 25 25 25 26 25 25 25 24 26 27
32 32 31 32 32 31 31 28 27 26 27 24 26 25 29 32 32 32 31 30 29 28 27 26 24 23 23 23 23 24 26 26 26 26 26 26 26 26 24 25 24 24 24 25 25 24 25 24 25
32 32 32 31 30 31 31 29 30 29 29 29 28 27 28 31 32 32 32 30 29 28 27 27 25 24 23 23 24 24 24 25 25 25 26 27 27 27 26 24 24 25 24 24 24 25 25 25 25
31 33 32 30 31 30 31 30 30 29 31 31 29 27 28 29 31 32 31 29 25 28 27 27 25 24 24 24 24 24 24 25 25 25 27 27 27 27 26 25 25 24 24 24 24 25 26 26 26
32 31 34 32 33 32 33 31 29 30 30 30 30 27 27 29 31 31 31 30 27 28 27 27 26 25 24 24 24 23 24 24 26 26 25 26 26 26 25 25 25 25 25 24 24 25 25 25 25
32 34 31 32 29 30 32 31 28 27 27 29 31 29 29 24 27 31 31 30 30 29 28 27 26 25 25 25 24 24 24 24 24 24 24 25 25 24 25 25 25 24 24 24 24 26 25 25 26
31 31 32 30 33 30 30 29 28 25 26 28 28 31 27 25 28 30 30 29 29 28 28 27 26 26 25 25 25 24 24 24 24 24 24 24 24 24 24 24 24 25 25 24 24 24 25 25 25
33 32 33 31 29 31 31 29 25 25 25 26 29 31 30 24 26 29 27 28 27 26 26 27 26 26 26 26 25 24 24 24 24 24 24 24 24 24 23 24 24 24 25 24 24 24 26 25 25
Height
783 784 784 781 783 763 785 786 770 781 784 776 780 783 794 796 799 817 817 818 821 824 827 830 830 830 830 831 832 832 833 832 833 836 836 836 837 837 838 840 840 840 841 842 844 844 843 844 844
784 784 783 775 775 779 786 775 781 778 778 779 784 786 791 807 802 811 817 821 822 825 828 831 833 833 833 833 835 835 835 835 834 838 840 839 840 840 841 842 843 843 844 846 845 846 846 846 845
784 784 776 775 773 781 786 775 778 779 779 782 791 789 795 811 809 812 819 822 824 827 832 833 835 835 835 835 836 837 838 838 837 842 843 843 843 844 845 845 845 847 847 848 847 847 848 847 847
782 782 773 776 783 780 776 775 777 782 784 785 787 803 805 810 811 817 822 824 826 829 834 836 837 837 837 837 838 840 841 841 843 845 845 845 846 847 848 848 848 849 849 850 848 849 849 849 848
783 777 777 780 784 777 772 773 775 782 786 790 788 805 809 814 817 821 824 824 826 830 835 838 838 838 839 840 841 843 844 845 847 848 847 848 849 850 850 850 851 850 851 851 850 850 851 850 850
779 781 783 783 787 781 778 777 778 784 789 793 795 803 816 818 820 823 825 826 828 830 835 840 841 842 840 843 844 846 847 849 849 849 850 851 851 853 853 852 852 852 852 851 852 852 852 852 851
782 794 777 773 787 789 784 777 782 787 791 794 791 806 816 818 822 825 827 829 830 833 837 841 844 845 845 846 848 850 851 851 850 852 853 853 854 855 855 855 854 853 852 853 853 854 854 853 852
776 790 782 775 788 794 782 783 784 787 796 793 793 809 817 818 823 826 828 830 832 836 839 843 845 846 847 851 852 853 853 852 853 854 854 855 856 857 856 856 855 854 854 854 855 855 855 853 853
774 792 795 783 783 792 782 790 787 787 793 794 796 797 808 819 823 826 830 832 835 837 839 842 846 849 849 852 855 855 854 854 855 856 857 858 858 858 858 857 856 855 855 856 855 855 855 854 853
775 795 788 783 777 785 783 785 790 793 797 803 799 805 814 821 824 825 829 832 834 839 840 842 843 848 849 852 855 857 856 858 858 859 859 859 859 859 859 858 857 857 857 857 857 856 855 853 854
779 804 794 788 785 779 783 787 785 791 798 798 804 807 814 820 824 825 829 832 835 838 840 845 847 850 850 853 856 857 857 857 858 859 860 860 859 860 859 858 859 859 858 857 858 857 856 857 856
795 802 799 793 790 788 787 785 790 790 792 791 801 808 813 818 821 824 828 833 837 840 843 845 848 851 853 854 855 857 858 858 858 859 860 860 860 860 860 859 860 860 859 859 859 859 859 859 859
797 803 803 802 798 793 794 796 793 796 790 796 804 811 814 817 821 825 828 833 837 840 843 846 848 850 853 854 855 857 857 857 859 860 860 860 860 861 861 861 861 861 861 861 861 861 861 861 861
790 794 802 798 806 804 801 805 798 798 795 801 806 811 813 816 820 826 829 833 837 840 843 846 848 851 853 855 856 857 857 858 859 860 860 861 861 862 862 862 862 862 863 863 863 863 862 862 861
783 796 796 801 808 814 807 813 810 799 797 803 806 809 812 816 821 826 830 833 836 840 844 846 849 851 854 855 856 856 857 858 860 861 862 863 863 862 863 863 863 863 864 863 863 863 863 862 862
790 791 809 809 805 820 816 826 816 805 800 803 804 808 813 817 821 825 829 832 836 839 843 847 849 852 854 856 857 857 859 860 861 862 863 863 864 863 864 864 865 865 865 864 864 863 863 862 862
782 805 805 819 819 820 825 829 819 816 813 804 804 806 811 815 820 824 828 832 836 839 843 846 850 852 855 857 859 861 861 861 862 862 862 863 864 865 866 866 866 865 865 864 863 863 863 863 862
789 790 798 806 816 826 828 827 818 815 819 808 802 804 808 812 816 822 826 830 834 838 843 846 849 852 854 856 858 859 860 860 862 862 863 864 865 866 867 867 867 867 865 865 866 864 864 864 863
776 781 793 800 806 811 823 825 823 821 822 818 806 801 804 807 813 819 824 829 833 837 841 845 848 851 853 855 856 857 859 860 862 863 864 865 866 867 867 868 868 868 868 868 867 866 865 864 863
777 783 790 802 804 804 811 819 818 818 818 817 809 800 801 806 809 817 822 826 831 836 840 844 848 851 853 855 856 857 860 861 862 863 865 866 867 868 868 868 868 868 867 868 868 867 865 865 865
778 778 787 794 802 803 807 810 816 815 814 814 810 802 800 808 806 813 819 824 829 833 838 842 846 850 852 854 856 859 861 862 863 864 865 866 867 868 868 868 868 868 868 868 869 868 867 865 866
781 775 780 793 799 815 802 819 805 807 811 811 812 809 799 800 802 807 814 820 825 831 836 840 844 848 851 854 855 857 857 857 859 862 863 865 868 868 869 869 869 869 869 870 870 869 868 868 866
774 771 777 786 788 795 801 822 800 796 814 802 805 804 799 794 798 802 807 815 821 828 833 837 842 846 849 852 854 856 856 857 860 861 864 865 867 868 868 869 870 870 870 870 871 871 870 870 868
768 776 777 775 776 793 783 805 802 799 787 801 798 801 796 790 791 797 804 811 818 825 830 834 839 844 847 850 853 855 855 856 858 861 862 862 863 865 867 868 869 870 871 871 870 871 871 871 870
773 773 787 792 800 794 775 798 783 777 777 776 781 787 793 788 788 794 800 809 814 820 826 831 837 841 844 847 851 854 856 858 859 861 861 859 860 862 864 866 868 869 870 870 870 870 870 871 870
774 764 780 808 794 795 776 790 782 772 762 761 771 781 787 790 788 791 798 807 815 817 823 828 833 838 841 844 848 851 854 855 857 857 856 858 858 860 862 865 866 867 868 868 869 869 868 869 869
767 781 753 777 764 780 763 771 772 765 768 767 769 778 786 786 786 790 795 801 811 815 820 824 830 835 839 842 845 848 852 853 853 854 857 858 859 859 861 862 864 865 867 867 868 868 868 869 868
763 753 782 772 804 797 773 778 793 786 783 774 767 773 778 791 792 789 793 798 804 811 817 822 826 831 835 839 842 845 848 851 852 854 855 856 857 858 859 860 862 863 864 866 866 866 866 867 866
772 773 769 777 763 789 791 791 782 792 783 777 772 766 781 787 787 787 792 797 802 809 813 819 823 827 832 836 839 842 845 847 849 850 852 854 856 857 856 858 859 860 861 863 864 865 865 865 865
751 762 758 780 789 771 778 792 788 788 788 781 769 766 771 789 790 788 795 797 803 808 813 816 821 824 828 832 835 838 842 844 845 847 849 852 853 854 855 856 857 858 859 860 861 862 861 862 863
Wind_Speed
5 3 2 5 5 3 7 6 3 9 7 6 6 5 14 11 8 6 11 13 17 16 13 12 13 15 15 16 17 20 21 21 19 15 15 15 15 17 15 16 16 16 17 17 17 17 16 15 16
4 2 3 3 5 6 8 5 7 8 10 11 10 5 8 14 14 15 14 13 15 15 16 15 16 15 16 18 20 22 23 24 24 15 14 15 15 14 15 15 16 16 15 17 18 16 15 14 11
2 4 3 3 2 7 9 6 7 10 11 6 5 10 6 8 8 7 18 16 16 17 17 18 18 18 18 18 21 22 19 19 19 13 15 14 13 13 13 15 16 15 15 14 14 14 13 13 12
3 3 4 5 8 7 10 9 11 12 9 4 10 11 9 11 6 14 17 18 19 19 20 18 18 18 19 21 16 16 13 18 17 13 15 13 14 13 13 14 15 14 14 12 12 12 13 12 13
2 3 3 6 7 11 10 8 9 8 6 8 5 9 11 12 18 18 19 19 20 21 19 17 20 20 19 17 16 14 14 15 13 10 11 11 12 13 13 13 13 13 12 11 11 13 14 14 12
3 3 6 6 10 9 8 6 5 7 8 9 15 17 8 15 17 18 18 18 18 18 18 15 15 21 20 18 18 13 13 13 11 9 11 12 12 12 13 13 12 11 10 9 11 12 12 12 11
3 2 4 9 12 9 9 4 5 7 9 9 13 15 11 16 17 17 16 15 15 14 16 15 15 16 15 16 13 12 11 10 10 12 12 14 13 13 13 12 11 10 8 9 10 9 9 9 10
2 1 7 6 11 10 9 7 8 7 9 9 11 8 17 18 17 17 15 15 14 14 15 14 16 14 14 14 14 13 11 12 12 13 14 14 14 15 14 13 10 8 8 8 7 6 6 7 7
3 4 4 8 10 9 11 12 7 7 12 6 3 15 22 22 19 17 15 14 14 13 13 15 16 15 12 15 13 12 13 13 14 14 14 12 11 11 12 11 11 9 7 5 4 4 4 5 9
3 2 2 3 6 10 10 9 10 10 10 8 14 20 23 21 18 18 16 15 15 13 12 13 14 16 14 17 12 10 10 11 11 10 8 9 9 9 11 9 10 8 6 4 3 3 5 5 3
3 3 6 7 7 3 11 9 6 9 5 12 18 22 22 20 17 15 15 14 13 12 11 11 11 11 11 12 11 10 10 11 9 8 7 8 8 9 9 8 7 5 6 4 5 4 5 6 6
9 6 4 4 4 4 7 5 10 7 6 15 17 19 20 17 16 15 15 14 14 11 10 9 9 10 10 11 10 10 10 10 9 7 6 6 7 8 8 7 7 7 7 7 6 8 8 8 8
13 6 6 3 7 7 3 3 7 8 13 16 17 16 16 15 15 13 13 14 13 12 10 8 8 8 9 10 11 10 10 9 8 6 6 6 8 8 7 6 7 7 6 7 7 7 7 6 6
10 9 10 5 3 8 3 2 6 7 15 16 16 14 14 14 14 13 13 13 13 12 11 9 8 7 8 10 9 9 8 8 7 6 5 6 7 7 6 6 6 5 4 4 4 4 5 4 4
17 13 13 8 7 1 9 5 6 8 14 16 14 12 12 13 13 13 13 13 13 12 12 11 9 8 8 8 8 8 8 8 7 5 5 5 6 6 7 6 5 4 4 3 2 2 3 2 3
7 6 6 6 4 6 5 1 3 6 10 14 14 12 11 11 13 12 12 13 13 12 12 12 11 10 8 6 7 8 6 5 5 5 4 5 6 7 6 5 5 4 5 5 3 3 2 1 2
7 4 7 5 6 5 2 3 4 1 6 12 13 13 12 12 12 12 13 13 14 12 12 12 12 12 9 8 8 6 5 4 5 6 5 5 5 5 6 5 5 6 6 6 4 2 1 2 3
2 6 3 6 8 2 5 6 5 1 6 12 14 13 12 13 13 14 14 13 14 13 12 12 12 11 9 8 6 5 4 4 4 4 5 3 2 4 5 4 4 4 5 6 5 3 2 3 4
3 5 6 7 7 4 4 1 2 7 8 13 14 15 15 13 14 15 14 14 14 14 14 13 12 11 10 9 9 7 5 4 4 3 2 2 2 3 4 4 4 4 5 4 3 3 3 3 6
4 4 7 6 4 4 6 8 8 8 5 12 15 15 14 12 13 14 15 15 14 15 16 15 13 11 11 11 9 6 7 5 5 5 4 2 2 2 2 3 4 4 4 5 4 4 3 3 6
7 6 3 3 8 4 4 5 9 11 10 13 12 12 12 15 15 15 17 17 16 15 17 17 14 11 12 11 9 8 8 4 8 7 6 3 3 0 2 4 4 4 4 6 6 5 5 6 4
9 3 4 5 7 3 7 1 10 7 12 16 16 16 15 17 15 15 19 19 18 17 16 17 16 14 12 14 12 10 12 11 10 9 6 5 4 3 1 1 3 4 4 4 5 6 3 5 6
2 4 2 7 7 3 8 3 2 9 8 18 19 20 17 18 17 16 18 20 19 18 17 17 17 16 14 14 12 11 12 9 10 8 6 5 5 4 2 2 1 2 3 3 4 5 5 5 6
8 9 7 7 7 8 5 7 6 10 16 14 20 17 20 19 18 19 19 18 19 19 18 17 18 18 17 15 13 12 12 9 11 10 11 9 7 7 5 4 3 3 3 2 3 3 3 5 5
16 14 9 8 5 7 5 6 3 6 11 22 24 22 20 18 18 16 16 18 20 21 20 19 18 18 17 16 15 14 12 11 11 9 13 9 8 7 8 7 6 5 3 2 3 3 4 4 5
18 17 10 7 6 3 5 4 3 4 4 14 20 14 19 16 17 16 19 22 19 21 22 20 20 18 18 18 17 15 13 12 13 12 9 11 8 7 6 7 7 7 6 4 5 6 5 2 4
17 13 10 12 6 7 5 5 6 1 6 3 15 16 18 18 14 16 19 22 24 22 22 22 20 19 19 19 18 15 13 14 13 10 11 10 9 7 9 9 8 8 8 8 7 7 6 5 5
14 10 8 8 4 8 6 1 4 6 7 4 9 18 17 10 13 14 17 20 22 22 22 21 22 21 20 20 18 17 15 16 15 13 14 11 10 9 9 10 10 10 10 9 9 7 6 5 6
9 10 11 2 8 3 2 4 7 7 9 7 3 11 14 11 14 14 14 18 20 19 20 21 21 20 19 18 18 16 16 15 15 15 14 12 11 11 11 11 11 10 10 11 11 9 7 7 6
11 11 15 6 2 2 4 6 7 5 7 8 2 11 17 12 13 12 14 18 15 16 16 18 19 20 19 18 18 17 16 15 16 16 15 13 13 12 12 10 12 12 11 9 12 12 11 8 8
Wind_Direction
174 191 241 235 229 220 113 96 71 125 122 69 82 13 73 26 8 67 112 113 112 114 112 108 104 89 95 98 96 105 104 104 103 99 101 104 104 105 106 105 101 100 100 99 94 87 83 83 82
194 212 233 263 245 151 101 107 128 119 96 106 92 125 50 71 80 115 119 119 119 111 108 107 95 92 93 106 98 108 108 99 97 103 112 112 108 103 105 104 103 99 92 89 86 83 79 76 89
180 247 268 286 293 63 98 110 119 121 127 124 102 52 37 90 82 94 117 123 114 103 108 111 99 94 94 101 103 106 97 104 109 116 115 107 108 104 104 104 99 96 92 90 85 81 79 75 86
204 246 214 249 98 79 95 113 125 134 105 75 109 86 82 63 102 118 124 123 119 117 113 115 98 102 98 104 98 106 97 93 100 111 109 110 108 101 101 99 96 92 94 95 86 81 72 76 81
239 240 201 135 95 99 96 110 147 138 105 122 123 107 95 88 113 119 125 126 121 115 120 120 99 91 105 90 88 97 103 98 103 102 106 104 100 94 94 94 94 95 99 94 87 80 75 80 81
222 287 192 153 118 115 101 106 118 104 117 112 120 113 84 121 124 125 124 125 124 121 124 127 127 90 91 97 94 95 103 117 122 118 107 104 97 90 87 89 95 103 105 98 87 77 75 70 69
269 303 194 139 131 128 124 115 96 115 133 118 137 117 123 140 128 130 129 124 124 121 113 128 131 139 123 111 120 107 104 112 119 111 103 98 95 92 91 95 99 105 108 96 84 77 70 65 60
251 125 185 142 157 121 127 92 109 100 86 128 131 146 152 140 144 135 134 130 126 123 123 123 129 142 142 138 124 122 140 129 107 106 102 100 96 87 85 85 102 111 105 95 87 72 64 53 45
204 203 203 155 159 135 133 121 85 111 128 124 106 140 136 146 146 142 137 128 130 123 127 128 129 134 135 123 127 130 118 110 98 99 103 91 97 98 93 108 102 103 103 104 87 68 51 37 36
264 134 102 6 78 141 154 135 119 140 122 123 128 116 138 148 154 153 147 147 139 133 135 124 129 136 153 130 135 121 112 112 110 110 99 93 96 96 93 94 91 93 101 84 56 17 25 53 81
53 86 129 88 82 181 142 134 129 154 151 146 147 143 149 155 162 160 153 151 136 140 132 127 127 127 137 131 141 133 121 119 113 100 92 88 86 84 92 90 86 87 74 91 71 56 73 77 86
104 59 32 46 42 97 144 104 140 52 70 136 141 150 151 162 166 167 161 154 149 151 139 135 134 125 131 134 130 122 124 123 120 108 84 77 84 79 78 79 86 91 79 70 67 77 79 88 91
107 107 103 65 32 77 115 139 121 80 120 129 139 154 158 165 164 166 163 155 158 157 153 152 144 131 126 124 124 123 127 126 122 102 79 78 74 74 82 74 83 83 81 73 73 78 82 81 86
131 146 132 140 81 356 328 93 144 110 135 138 149 161 163 165 166 162 170 164 169 165 162 160 158 145 135 129 127 127 127 125 120 101 80 61 74 79 77 77 77 83 69 69 78 88 95 87 74
140 158 134 137 128 75 323 188 137 144 157 153 160 164 160 165 163 168 172 173 177 177 166 167 165 157 145 138 133 128 129 130 129 115 92 83 71 57 54 74 66 68 56 62 89 111 112 95 48
150 169 164 54 176 26 337 152 263 327 175 172 169 165 165 165 170 166 166 170 167 167 169 171 167 159 155 147 143 141 132 134 136 145 127 97 67 60 55 84 71 55 66 66 98 119 116 29 14
186 154 125 125 60 105 27 155 304 345 256 198 182 176 175 168 174 168 166 168 163 156 164 170 167 165 169 166 161 148 138 118 130 134 125 109 73 60 61 84 59 49 60 54 65 100 55 37 337
117 135 133 138 160 133 181 221 315 309 223 224 195 183 184 181 179 169 171 175 173 168 168 173 170 167 169 171 168 158 144 120 122 116 127 84 65 67 76 79 56 49 66 69 55 54 29 359 348
121 90 94 106 143 170 199 256 301 165 204 234 229 194 191 192 169 169 176 175 179 181 178 180 178 176 176 178 177 172 160 150 138 146 132 79 101 86 73 86 76 69 57 49 44 42 19 9 357
212 190 100 122 156 226 166 198 176 195 204 217 224 212 192 201 174 177 182 178 183 184 187 185 189 189 191 182 182 188 169 181 163 154 159 157 137 94 72 63 69 61 61 53 21 356 348 2 4
220 266 122 349 161 172 193 182 194 186 197 215 235 233 197 205 192 183 187 186 185 182 185 186 189 188 190 192 183 168 168 182 177 171 166 160 164 147 55 46 55 40 22 42 22 8 360 354 12
210 186 216 166 205 277 208 270 220 195 195 204 222 232 225 199 208 193 185 189 190 185 185 185 186 186 187 191 194 188 204 182 179 175 157 165 173 183 199 39 35 29 24 25 19 9 16 355 10
287 191 180 185 247 262 180 250 125 203 197 206 212 225 223 210 207 204 192 186 190 187 187 186 189 193 196 201 209 199 219 190 191 188 173 200 186 179 199 223 298 352 338 13 9 24 33 20 13
151 188 206 219 251 249 119 224 172 188 225 197 219 212 224 221 201 207 191 188 190 189 189 188 189 194 199 206 212 223 208 210 195 209 196 206 196 198 204 200 215 265 306 318 318 335 358 343 8
199 206 228 218 211 263 136 204 275 216 202 203 206 209 213 211 209 204 190 197 192 190 191 190 192 195 199 206 209 208 211 219 216 215 221 207 208 209 197 213 217 236 249 311 290 295 315 329 334
212 240 260 264 233 266 151 224 109 344 280 192 219 186 201 208 216 201 198 190 194 193 194 194 192 199 197 199 204 210 217 220 221 214 222 217 233 228 211 212 219 224 230 246 278 273 279 301 321
200 241 314 263 220 258 149 132 91 89 71 168 184 172 197 209 203 206 201 197 196 198 196 197 197 200 203 206 209 215 217 225 222 229 221 234 236 240 226 228 228 229 233 237 242 263 263 277 287
275 239 218 227 238 260 138 186 84 8 357 319 168 180 196 202 214 222 209 205 198 198 198 201 199 201 206 209 212 217 219 220 221 223 232 235 235 239 236 235 238 233 234 235 234 249 237 263 276
196 234 249 26 278 287 249 101 34 9 351 332 188 180 166 189 221 221 209 203 203 200 200 202 203 202 205 212 214 218 221 224 226 227 233 240 249 244 235 240 240 239 236 239 232 244 263 251 261
253 242 216 257 325 48 339 84 5 27 3 354 357 172 156 164 239 234 190 206 204 188 205 202 206 205 207 208 212 218 222 225 226 231 236 240 246 249 253 245 242 244 244 246 243 242 261 253 259